<?xml version="1.0" encoding="UTF-8" standalone="no" ?>
<gpx xmlns="http://www.topografix.com/GPX/1/1" xmlns:xsi="http://www.w3.org/2001/XMLSchema-instance" xsi:schemaLocation="http://www.topografix.com/GPX/1/1 http://www.topografix.com/GPX/1/1/gpx.xsd" version="1.1" creator="VisuGPX - https://www.visugpx.com">
  <metadata>
    <name>Alpes Grées, entre France et Italie</name>
    <desc><![CDATA[Les Alpes Grées sont des montagnes injustement méconnues du grand public, formant pourtant la frontière naturelle entre France et Italie sur plus de 50 kilomètres. Isolées et sauvages, elles sont pourtant fréquentées depuis très longtemps, comme en témoigne la voie romaine franchissant le Col du Petit-Saint-Bernard. N'oublions pas  non plus qu'il y a 150 ans, Val d'Aoste et Savoie étaient alors réunies sous la même bannière du royaume de Piémont-Sardaigne. C'est cette ambiance bien particulière que vous ressentirez à coup sûr en jouant à saute mouton entre France et Italie, en suivant des chemins immémoriaux qui permettaient un commerce important, légal et parfois moins?.
]]></desc>
  </metadata>
  <trk>
    <name><![CDATA[Jour 1]]></name>
    <desc><![CDATA[Village du Chenal - Refuge de l'Archeboc ]]></desc>
    <extensions>
      <line xmlns="http://www.topografix.com/GPX/gpx_style/0/2">
        <color>ff0011</color>
        <width>7</width>
      </line>
    </extensions>
    <trkseg>
      <trkpt lat="45.54644" lon="6.91342">
        <ele>1706</ele>
        <time>2021-05-10T15:17:38+02:00</time>
      </trkpt>
      <trkpt lat="45.54573" lon="6.91482">
        <ele>1725</ele>
        <time>2021-05-10T15:17:43+02:00</time>
      </trkpt>
      <trkpt lat="45.54502" lon="6.91583">
        <ele>1729</ele>
        <time>2021-05-10T15:17:48+02:00</time>
      </trkpt>
      <trkpt lat="45.54561" lon="6.91652">
        <ele>1754</ele>
        <time>2021-05-10T15:17:53+02:00</time>
      </trkpt>
      <trkpt lat="45.54631" lon="6.91565">
        <ele>1762</ele>
        <time>2021-05-10T15:17:58+02:00</time>
      </trkpt>
      <trkpt lat="45.54715" lon="6.91492">
        <ele>1769</ele>
        <time>2021-05-10T15:18:03+02:00</time>
      </trkpt>
      <trkpt lat="45.54846" lon="6.91408">
        <ele>1797</ele>
        <time>2021-05-10T15:18:08+02:00</time>
      </trkpt>
      <trkpt lat="45.55008" lon="6.91377">
        <ele>1816</ele>
        <time>2021-05-10T15:18:13+02:00</time>
      </trkpt>
      <trkpt lat="45.55154" lon="6.91349">
        <ele>1813</ele>
        <time>2021-05-10T15:18:18+02:00</time>
      </trkpt>
      <trkpt lat="45.5523" lon="6.91342">
        <ele>1818</ele>
        <time>2021-05-10T15:18:23+02:00</time>
      </trkpt>
      <trkpt lat="45.55276" lon="6.91513">
        <ele>1822</ele>
        <time>2021-05-10T15:18:28+02:00</time>
      </trkpt>
      <trkpt lat="45.5532" lon="6.91862">
        <ele>1871</ele>
        <time>2021-05-10T15:18:33+02:00</time>
      </trkpt>
      <trkpt lat="45.55396" lon="6.92148">
        <ele>1875</ele>
        <time>2021-05-10T15:18:38+02:00</time>
      </trkpt>
      <trkpt lat="45.5546" lon="6.92218">
        <ele>1876</ele>
        <time>2021-05-10T15:18:43+02:00</time>
      </trkpt>
      <trkpt lat="45.55435" lon="6.92322">
        <ele>1890</ele>
        <time>2021-05-10T15:18:48+02:00</time>
      </trkpt>
      <trkpt lat="45.55315" lon="6.92357">
        <ele>1908</ele>
        <time>2021-05-10T15:18:53+02:00</time>
      </trkpt>
      <trkpt lat="45.55384" lon="6.92416">
        <ele>1918</ele>
        <time>2021-05-10T15:18:58+02:00</time>
      </trkpt>
      <trkpt lat="45.55411" lon="6.925">
        <ele>1943</ele>
        <time>2021-05-10T15:19:03+02:00</time>
      </trkpt>
      <trkpt lat="45.55452" lon="6.92518">
        <ele>1938</ele>
        <time>2021-05-10T15:19:08+02:00</time>
      </trkpt>
      <trkpt lat="45.5535" lon="6.92573">
        <ele>1975</ele>
        <time>2021-05-10T15:19:13+02:00</time>
      </trkpt>
      <trkpt lat="45.55413" lon="6.92744">
        <ele>2010</ele>
        <time>2021-05-10T15:19:18+02:00</time>
      </trkpt>
      <trkpt lat="45.55411" lon="6.92967">
        <ele>2049</ele>
        <time>2021-05-10T15:19:23+02:00</time>
      </trkpt>
      <trkpt lat="45.55477" lon="6.92978">
        <ele>2071</ele>
        <time>2021-05-10T15:19:28+02:00</time>
      </trkpt>
      <trkpt lat="45.55486" lon="6.92926">
        <ele>2057</ele>
        <time>2021-05-10T15:19:33+02:00</time>
      </trkpt>
      <trkpt lat="45.55528" lon="6.92978">
        <ele>2091</ele>
        <time>2021-05-10T15:19:38+02:00</time>
      </trkpt>
      <trkpt lat="45.5554" lon="6.93198">
        <ele>2143</ele>
        <time>2021-05-10T15:19:43+02:00</time>
      </trkpt>
      <trkpt lat="45.55579" lon="6.93414">
        <ele>2162</ele>
        <time>2021-05-10T15:19:48+02:00</time>
      </trkpt>
      <trkpt lat="45.55638" lon="6.93533">
        <ele>2180</ele>
        <time>2021-05-10T15:19:53+02:00</time>
      </trkpt>
      <trkpt lat="45.55638" lon="6.93599">
        <ele>2189</ele>
        <time>2021-05-10T15:19:58+02:00</time>
      </trkpt>
      <trkpt lat="45.55606" lon="6.9363">
        <ele>2197</ele>
        <time>2021-05-10T15:20:03+02:00</time>
      </trkpt>
      <trkpt lat="45.55696" lon="6.93693">
        <ele>2219</ele>
        <time>2021-05-10T15:20:08+02:00</time>
      </trkpt>
      <trkpt lat="45.55753" lon="6.93794">
        <ele>2228</ele>
        <time>2021-05-10T15:20:13+02:00</time>
      </trkpt>
      <trkpt lat="45.55709" lon="6.93965">
        <ele>2232</ele>
        <time>2021-05-10T15:20:18+02:00</time>
      </trkpt>
      <trkpt lat="45.55826" lon="6.94234">
        <ele>2219</ele>
        <time>2021-05-10T15:20:23+02:00</time>
      </trkpt>
      <trkpt lat="45.55963" lon="6.94474">
        <ele>2213</ele>
        <time>2021-05-10T15:20:28+02:00</time>
      </trkpt>
      <trkpt lat="45.56007" lon="6.94687">
        <ele>2215</ele>
        <time>2021-05-10T15:20:33+02:00</time>
      </trkpt>
      <trkpt lat="45.56046" lon="6.94844">
        <ele>2218</ele>
        <time>2021-05-10T15:20:38+02:00</time>
      </trkpt>
      <trkpt lat="45.5619" lon="6.95151">
        <ele>2222</ele>
        <time>2021-05-10T15:20:43+02:00</time>
      </trkpt>
      <trkpt lat="45.56331" lon="6.9536">
        <ele>2244</ele>
        <time>2021-05-10T15:20:48+02:00</time>
      </trkpt>
      <trkpt lat="45.5639" lon="6.95653">
        <ele>2301</ele>
        <time>2021-05-10T15:20:53+02:00</time>
      </trkpt>
      <trkpt lat="45.56432" lon="6.9573">
        <ele>2312</ele>
        <time>2021-05-10T15:20:58+02:00</time>
      </trkpt>
      <trkpt lat="45.56407" lon="6.95845">
        <ele>2316</ele>
        <time>2021-05-10T15:21:03+02:00</time>
      </trkpt>
      <trkpt lat="45.56417" lon="6.96054">
        <ele>2353</ele>
        <time>2021-05-10T15:21:08+02:00</time>
      </trkpt>
      <trkpt lat="45.56458" lon="6.9632">
        <ele>2387</ele>
        <time>2021-05-10T15:21:13+02:00</time>
      </trkpt>
      <trkpt lat="45.56463" lon="6.96536">
        <ele>2408</ele>
        <time>2021-05-10T15:21:18+02:00</time>
      </trkpt>
      <trkpt lat="45.56478" lon="6.96888">
        <ele>2424</ele>
        <time>2021-05-10T15:21:23+02:00</time>
      </trkpt>
      <trkpt lat="45.5649" lon="6.97073">
        <ele>2442</ele>
        <time>2021-05-10T15:21:28+02:00</time>
      </trkpt>
      <trkpt lat="45.56563" lon="6.97286">
        <ele>2475</ele>
        <time>2021-05-10T15:21:33+02:00</time>
      </trkpt>
      <trkpt lat="45.56642" lon="6.97425">
        <ele>2483</ele>
        <time>2021-05-10T15:21:38+02:00</time>
      </trkpt>
      <trkpt lat="45.5671" lon="6.97526">
        <ele>2504</ele>
        <time>2021-05-10T15:21:43+02:00</time>
      </trkpt>
      <trkpt lat="45.56791" lon="6.97673">
        <ele>2540</ele>
        <time>2021-05-10T15:21:48+02:00</time>
      </trkpt>
      <trkpt lat="45.56866" lon="6.97788">
        <ele>2549</ele>
        <time>2021-05-10T15:21:53+02:00</time>
      </trkpt>
      <trkpt lat="45.56883" lon="6.98133">
        <ele>2607</ele>
        <time>2021-05-10T15:21:58+02:00</time>
      </trkpt>
      <trkpt lat="45.56935" lon="6.98283">
        <ele>2620</ele>
        <time>2021-05-10T15:22:03+02:00</time>
      </trkpt>
      <trkpt lat="45.57062" lon="6.98343">
        <ele>2640</ele>
        <time>2021-05-10T15:22:08+02:00</time>
      </trkpt>
      <trkpt lat="45.57169" lon="6.98245">
        <ele>2677</ele>
        <time>2021-05-10T15:22:13+02:00</time>
      </trkpt>
      <trkpt lat="45.57252" lon="6.98165">
        <ele>2690</ele>
        <time>2021-05-10T15:22:18+02:00</time>
      </trkpt>
      <trkpt lat="45.57345" lon="6.98067">
        <ele>2722</ele>
        <time>2021-05-10T15:22:23+02:00</time>
      </trkpt>
      <trkpt lat="45.57428" lon="6.98004">
        <ele>2754</ele>
        <time>2021-05-10T15:22:28+02:00</time>
      </trkpt>
      <trkpt lat="45.5754" lon="6.97914">
        <ele>2813</ele>
        <time>2021-05-10T15:22:33+02:00</time>
      </trkpt>
      <trkpt lat="45.57643" lon="6.97879">
        <ele>2862</ele>
        <time>2021-05-10T15:22:38+02:00</time>
      </trkpt>
      <trkpt lat="45.57753" lon="6.97771">
        <ele>2927</ele>
        <time>2021-05-10T15:22:43+02:00</time>
      </trkpt>
      <trkpt lat="45.5784" lon="6.9761">
        <ele>2908</ele>
        <time>2021-05-10T15:22:48+02:00</time>
      </trkpt>
      <trkpt lat="45.57997" lon="6.97492">
        <ele>2940</ele>
        <time>2021-05-10T15:22:53+02:00</time>
      </trkpt>
      <trkpt lat="45.5816" lon="6.9739">
        <ele>2889</ele>
        <time>2021-05-10T15:22:58+02:00</time>
      </trkpt>
      <trkpt lat="45.58326" lon="6.97219">
        <ele>2878</ele>
        <time>2021-05-10T15:23:03+02:00</time>
      </trkpt>
      <trkpt lat="45.58456" lon="6.96906">
        <ele>2887</ele>
        <time>2021-05-10T15:23:08+02:00</time>
      </trkpt>
      <trkpt lat="45.58514" lon="6.9663">
        <ele>2847</ele>
        <time>2021-05-10T15:23:13+02:00</time>
      </trkpt>
      <trkpt lat="45.5859" lon="6.96354">
        <ele>2711</ele>
        <time>2021-05-10T15:23:18+02:00</time>
      </trkpt>
      <trkpt lat="45.58688" lon="6.96142">
        <ele>2622</ele>
        <time>2021-05-10T15:23:23+02:00</time>
      </trkpt>
      <trkpt lat="45.58788" lon="6.95873">
        <ele>2489</ele>
        <time>2021-05-10T15:23:28+02:00</time>
      </trkpt>
      <trkpt lat="45.58912" lon="6.95615">
        <ele>2400</ele>
        <time>2021-05-10T15:23:33+02:00</time>
      </trkpt>
      <trkpt lat="45.59117" lon="6.95496">
        <ele>2336</ele>
        <time>2021-05-10T15:23:38+02:00</time>
      </trkpt>
      <trkpt lat="45.59439" lon="6.95465">
        <ele>2208</ele>
        <time>2021-05-10T15:23:43+02:00</time>
      </trkpt>
      <trkpt lat="45.59761" lon="6.955">
        <ele>2086</ele>
        <time>2021-05-10T15:23:48+02:00</time>
      </trkpt>
      <trkpt lat="45.59859" lon="6.9543">
        <ele>2041</ele>
        <time>2021-05-10T15:23:53+02:00</time>
      </trkpt>
      <trkpt lat="45.60008" lon="6.95413">
        <ele>1998</ele>
        <time>2021-05-10T15:23:58+02:00</time>
      </trkpt>
      <trkpt lat="45.6004" lon="6.9566">
        <ele>2012</ele>
        <time>2021-05-10T15:24:03+02:00</time>
      </trkpt>
      <trkpt lat="45.60135" lon="6.95887">
        <ele>2032</ele>
        <time>2021-05-10T15:24:08+02:00</time>
      </trkpt>
      <trkpt lat="45.60264" lon="6.9589">
        <ele>2023</ele>
        <time>2021-05-10T15:24:13+02:00</time>
      </trkpt>
    </trkseg>
  </trk>
</gpx>